Weather History for KMTH - March, 2015

Change the Weather History Date:

Saturday, March 21, 2015

  Actual Average Record
Temperature  
Mean Temperature 78 °F 74 °F  
Max Temperature 84 °F 80 °F 87 °F (2003)
Min Temperature 71 °F 69 °F 66 °F (1998)
Degree Days  
Heating Degree Days 0 0  
Month to date heating degree days 0 0  
Since 1 July heating degree days 50 75  
Cooling Degree Days 13 10  
Month to date cooling degree days 291 180  
Year to date cooling degree days 678 562  
Growing Degree Days 27 (Base 50)    
Moisture  
Dew Point 68 °F    
Average Humidity 76    
Maximum Humidity 90    
Minimum Humidity 62    
Precipitation  
Precipitation 0.00 in 0.08 in 0.34 in (2009)
Month to date precipitation 0.11 1.59  
Year to date precipitation 2.34 5.41  
Snow  
Snow 0.00 in - - ()
Month to date snowfall 0.0  
Since 1 July snowfall 0.0  
Snow Depth 0.00 in    
Sea Level Pressure  
Sea Level Pressure 30.07 in    
Wind  
Wind Speed 2 mph (North)    
Max Wind Speed 8 mph    
Max Gust Speed 11 mph    
Visibility 10 miles    
Events      
T = Trace of Precipitation, MM = Missing Value Source: NWS Daily Summary

Daily Weather History Graph

Daily Weather History Graph

Search for Another Location

Airport or City:

Trip Planner

Search our weather history database for the weather conditions in past years. The results will help you decide how hot, cold, wet, or windy it might be!

Date:

Astronomy

Mar. 21, 2015 Rise Set
Actual Time 7:27 AM EDT 7:35 PM EDT
Civil Twilight 7:04 AM EDT 7:58 PM EDT
Nautical Twilight 6:38 AM EDT 8:25 PM EDT
Astronomical Twilight 6:11 AM EDT 8:51 PM EDT
Moon 8:19 AM EDT (3/21) 9:13 PM EDT (3/21)
Length of Visible Light 12h 53m
Length of Day
12h 08m
New Moon, 2% of the Moon is Illuminated
Mar 21
New Moon
Mar 27
First Quarter
Apr 4
Full
Apr 11
Last Quarter
Apr 18
New

Hourly Weather History & Observations

Time (EDT) Temp. Heat Index Dew Point Humidity Pressure Visibility Wind Dir Wind Speed Gust Speed Precip Events Conditions
12:53 AM 75.9 °F - 66.0 °F 71% 30.09 in 10.0 mi NNW 4.6 mph - N/A   Clear
1:53 AM 75.0 °F - 66.9 °F 76% 30.08 in 10.0 mi North 5.8 mph - N/A   Clear
2:53 AM 75.0 °F - 66.9 °F 76% 30.07 in 10.0 mi Calm Calm - N/A   Clear
3:37 AM 72.0 °F - 66.9 °F 84% 30.06 in 10.0 mi Calm Calm - N/A   Mostly Cloudy
3:53 AM 72.0 °F - 66.9 °F 84% 30.05 in 10.0 mi Calm Calm - N/A   Mostly Cloudy
4:08 AM 72.0 °F - 66.9 °F 84% 30.05 in 10.0 mi Calm Calm - N/A   Partly Cloudy
4:53 AM 72.0 °F - 66.9 °F 84% 30.05 in 10.0 mi Calm Calm - N/A   Partly Cloudy
5:26 AM 72.0 °F - 66.9 °F 84% 30.05 in 10.0 mi Calm Calm - N/A   Mostly Cloudy
5:33 AM 72.0 °F - 66.9 °F 84% 30.05 in 10.0 mi Calm Calm - N/A   Scattered Clouds
5:46 AM 73.9 °F - 69.1 °F 85% 30.05 in 10.0 mi NNE 5.8 mph - N/A   Mostly Cloudy
5:53 AM 73.9 °F - 68.0 °F 82% 30.05 in 10.0 mi NE 4.6 mph - N/A   Mostly Cloudy
6:14 AM 73.0 °F - 68.0 °F 84% 30.05 in 10.0 mi North 3.5 mph - N/A   Scattered Clouds
6:53 AM 72.0 °F - 68.0 °F 87% 30.06 in 10.0 mi NNE 3.5 mph - N/A   Partly Cloudy
7:24 AM 72.0 °F - 68.0 °F 87% 30.07 in 10.0 mi Calm Calm - N/A   Mostly Cloudy
7:53 AM 72.0 °F - 68.0 °F 87% 30.08 in 10.0 mi Calm Calm - N/A   Mostly Cloudy
8:07 AM 73.0 °F - 68.0 °F 84% 30.08 in 10.0 mi Calm Calm - N/A   Partly Cloudy
8:53 AM 77.0 °F - 68.0 °F 74% 30.10 in 10.0 mi North 3.5 mph - N/A   Scattered Clouds
9:53 AM 80.1 °F 82.7 °F 68.0 °F 67% 30.11 in 10.0 mi Variable 3.5 mph - N/A   Mostly Cloudy
10:53 AM 80.1 °F 82.7 °F 68.0 °F 67% 30.12 in 10.0 mi Calm Calm - N/A   Overcast
11:21 AM 81.0 °F 83.8 °F 68.0 °F 65% 30.12 in 10.0 mi Variable 4.6 mph - N/A   Scattered Clouds
11:41 AM 81.0 °F 83.8 °F 68.0 °F 65% 30.12 in 10.0 mi Variable 3.5 mph - N/A   Mostly Cloudy
11:53 AM 81.0 °F 83.3 °F 66.9 °F 62% 30.12 in 10.0 mi Variable 3.5 mph - N/A   Mostly Cloudy
12:25 PM 82.9 °F 85.8 °F 68.0 °F 60% 30.12 in 10.0 mi Calm Calm - N/A   Scattered Clouds
12:53 PM 82.0 °F 84.9 °F 68.0 °F 62% 30.12 in 10.0 mi Variable 3.5 mph - N/A   Mostly Cloudy
1:53 PM 80.1 °F 82.7 °F 68.0 °F 67% 30.09 in 10.0 mi Variable 3.5 mph - N/A   Overcast
2:14 PM 80.1 °F 82.7 °F 68.0 °F 67% 30.08 in 10.0 mi NE 3.5 mph - N/A   Mostly Cloudy
2:25 PM 79.0 °F - 68.0 °F 69% 30.08 in 10.0 mi NE 3.5 mph - N/A   Mostly Cloudy
2:53 PM 80.1 °F 82.7 °F 68.0 °F 67% 30.07 in 10.0 mi Calm Calm - N/A   Overcast
3:53 PM 79.0 °F - 68.0 °F 69% 30.05 in 10.0 mi NNW 4.6 mph - N/A   Overcast
4:53 PM 81.0 °F 84.1 °F 69.1 °F 67% 30.03 in 10.0 mi Variable 3.5 mph - N/A   Mostly Cloudy
5:01 PM 82.0 °F 85.5 °F 69.1 °F 65% 30.03 in 9.0 mi Variable 3.5 mph - N/A   Scattered Clouds
5:53 PM 80.1 °F 82.9 °F 69.1 °F 69% 30.03 in 10.0 mi South 3.5 mph - N/A   Scattered Clouds
6:04 PM 80.1 °F 82.9 °F 69.1 °F 69% 30.03 in 10.0 mi Variable 4.6 mph - N/A   Mostly Cloudy
6:53 PM 79.0 °F - 69.1 °F 72% 30.04 in 10.0 mi SSW 3.5 mph - N/A   Partly Cloudy
7:53 PM 77.0 °F - 68.0 °F 74% 30.04 in 10.0 mi Calm Calm - N/A   Clear
8:53 PM 75.0 °F - 68.0 °F 79% 30.05 in 10.0 mi Calm Calm - N/A   Partly Cloudy
9:53 PM 73.9 °F - 69.1 °F 85% 30.05 in 10.0 mi Calm Calm - N/A   Clear
10:53 PM 73.9 °F - 69.1 °F 85% 30.06 in 10.0 mi Calm Calm - N/A   Clear
11:53 PM 72.0 °F - 68.0 °F 87% 30.06 in 10.0 mi Calm Calm - N/A   Clear